Weather History for Eau Claire, WI

Change the Weather History Date:

Monday, August 19, 2013

  Actual Average Record
Temperature  
Mean Temperature 73 °F 69 °F  
Max Temperature 85 °F 80 °F 97 °F (1916)
Min Temperature 60 °F 58 °F 37 °F (1967)
Degree Days  
Heating Degree Days 0 1  
Month to date heating degree days 12 14  
Since 1 June heating degree days 101 87  
Since 1 July heating degree days 38 25  
Cooling Degree Days 8 5  
Month to date cooling degree days 38 109  
Year to date cooling degree days 402 475  
Since 1 June cooling degree days 370 443  
Growing Degree Days 23 (Base 50)    
Moisture  
Dew Point 61 °F    
Average Humidity 66    
Maximum Humidity 84    
Minimum Humidity 48    
Precipitation  
Precipitation 0.00 in 0.15 in 3.55 in (1907)
Month to date precipitation 0.39 2.85  
Year to date precipitation 26.94 20.50  
Snow  
Snow 0.00 in 0.00 in 0.00 in ()
Month to date snowfall 0.0 0.0  
Since 1 June snowfall 0.0 0.0  
Since 1 July snowfall 0.0 0.0  
Snow Depth 0.00 in    
Sea Level Pressure  
Sea Level Pressure 29.98 in    
Wind  
Wind Speed 8 mph (SSW)    
Max Wind Speed 17 mph    
Max Gust Speed 23 mph    
Visibility 10 miles    
Events      
T = Trace of Precipitation, MM = Missing Value Source: NWS Daily Summary

Daily Weather History Graph

Daily Weather History Graph

Search for Another Location

Airport:

Trip Planner

Search our weather history database for the weather conditions in past years. The results will help you decide how hot, cold, wet, or windy it might be!

Date:

Astronomy

Aug. 19, 2013 Rise Set
Actual Time 6:13 AM CDT 8:05 PM CDT
Civil Twilight 5:41 AM CDT 8:36 PM CDT
Nautical Twilight 5:03 AM CDT 9:14 PM CDT
Astronomical Twilight 4:21 AM CDT 9:56 PM CDT
Moon 6:56 PM CDT (8/19) 4:30 AM CDT (8/19)
Length of Visible Light 14h 54m
Length of Day
13h 52m
Waxing Gibbous, 97% of the Moon is Illuminated
Aug 19
Waxing Gibbous
Aug 20
Full
Aug 28
Last Quarter
Sep 5
New
Sep 12
First Quarter

Hourly Weather History & Observations

Time (CDT) Temp. Heat Index Dew Point Humidity Pressure Visibility Wind Dir Wind Speed Gust Speed Precip Events Conditions
12:56 AM 64.9 °F - 57.0 °F 75% 30.03 in 10.0 mi SSW 3.5 mph - N/A   Clear
1:56 AM 64.9 °F - 57.0 °F 75% 30.03 in 10.0 mi Calm Calm - N/A   Clear
2:56 AM 62.1 °F - 57.9 °F 86% 30.03 in 10.0 mi Calm Calm - N/A   Partly Cloudy
3:56 AM 63.0 °F - 57.9 °F 84% 30.01 in 10.0 mi SW 3.5 mph - N/A   Clear
4:56 AM 62.1 °F - 57.0 °F 84% 30.02 in 10.0 mi SSW 5.8 mph - N/A   Clear
5:56 AM 62.1 °F - 57.0 °F 84% 30.01 in 10.0 mi South 4.6 mph - N/A   Clear
6:56 AM 63.0 °F - 57.0 °F 81% 30.00 in 10.0 mi South 6.9 mph - N/A   Clear
7:56 AM 64.9 °F - 57.0 °F 75% 30.00 in 10.0 mi South 6.9 mph - N/A   Clear
8:56 AM 69.1 °F - 57.9 °F 68% 30.00 in 10.0 mi South 8.1 mph - N/A   Clear
9:56 AM 72.0 °F - 59.0 °F 64% 30.01 in 10.0 mi SSW 6.9 mph - N/A   Mostly Cloudy
10:56 AM 73.9 °F - 60.1 °F 62% 30.01 in 10.0 mi SSW 6.9 mph - N/A   Overcast
11:56 AM 77.0 °F - 61.0 °F 58% 30.00 in 10.0 mi South 10.4 mph - N/A   Mostly Cloudy
12:56 PM 78.1 °F - 62.1 °F 58% 29.99 in 10.0 mi WSW 8.1 mph - N/A   Overcast
1:56 PM 82.0 °F 83.0 °F 62.1 °F 51% 29.98 in 10.0 mi SSW 13.8 mph 20.7 mph N/A   Scattered Clouds
2:56 PM 84.0 °F 84.5 °F 62.1 °F 47% 29.97 in 10.0 mi WSW 10.4 mph - N/A   Clear
3:56 PM 82.9 °F 83.7 °F 62.1 °F 49% 29.96 in 10.0 mi SSW 16.1 mph 23.0 mph N/A   Scattered Clouds
4:56 PM 84.0 °F 84.9 °F 63.0 °F 49% 29.95 in 10.0 mi SW 12.7 mph 19.6 mph N/A   Overcast
5:56 PM 82.9 °F 84.0 °F 63.0 °F 51% 29.94 in 10.0 mi SSW 10.4 mph - N/A   Clear
6:56 PM 82.0 °F 83.4 °F 64.0 °F 54% 29.94 in 10.0 mi South 10.4 mph - N/A   Clear
7:56 PM 79.0 °F - 64.9 °F 62% 29.94 in 10.0 mi South 8.1 mph - N/A   Clear
8:56 PM 77.0 °F - 64.9 °F 66% 29.94 in 10.0 mi South 10.4 mph - N/A   Clear
9:56 PM 75.0 °F - 64.9 °F 71% 29.95 in 10.0 mi South 8.1 mph - N/A   Clear
10:56 PM 73.0 °F - 64.9 °F 76% 29.95 in 10.0 mi South 6.9 mph - N/A   Scattered Clouds
11:56 PM 72.0 °F - 64.9 °F 78% 29.95 in 10.0 mi South 4.6 mph - N/A   Mostly Cloudy